Flag for Paraguay Weather past 2 weeks in Ciudad del Este, Paraguay

Now
73 °F

Clear.


Feels Like: 73 °F
Forecast: 70 / 88 °F
Wind: 6 mph from East

Location: Foz Do Iguacu Aeroporto

Current Time: Sep 2, 2014 at 12:14:42 AM

Latest Report: Sep 1, 2014 at 11:00 PM


Visibility: 10 mi

Pressure: 29.77 "Hg

Humidity: 83%

Dew point: 68 °F

Location of Ciudad del EsteLocation

Historic Weather in Ciudad del Este — Graph

°F

Ciudad del Este temperature yesterday

Maximum temperature yesterday: 84 °F (at 2:00 PM)
Minimum temperature yesterday: 63 °F (at 2:00 AM)
Average temperature yesterday: 73 °F

Past Weeks' High & Low Weather Summary

 TemperatureHumidityPressure
High93 °F (Aug 24, 2:00 PM)100% (Aug 18, 1:00 AM)30.21 "Hg (Aug 18, 1:00 AM)
Low37 °F (Aug 27, 6:00 AM)28% (Aug 24, 2:00 PM)29.68 "Hg (Aug 24, 2:00 PM)
Average68 °F69%29.99 "Hg
* Reported Aug 17 11:00 PM — Sep 1 11:00 PM, Ciudad del Este, Weather by CustomWeather, © 2014

Note: Actual official high and low records may vary slightly from our data, if they occured in-between our weather recording intervals... More about our weather records

Advertising

Ciudad del Este weather history for previous 24 hours

 ConditionsComfort  
Time TempWeatherWind HumidityBarometerVisibility
11:00 PM
Sep 1
73 °FClear.6 mph83%29.77 "Hg10 mi
10:00 PM73 °FClear.8 mph83%29.77 "Hg10 mi
9:00 PM75 °FClear.9 mph83%29.80 "Hg10 mi
8:00 PM75 °FClear.9 mph83%29.80 "Hg10 mi
7:00 PM75 °FClear.7 mph83%29.77 "Hg10 mi
6:00 PM77 °FClear.7 mph79%29.77 "Hg10 mi
5:00 PM82 °FClear.6 mph62%29.77 "Hg10 mi
4:00 PM84 °FSunny.7 mph58%29.80 "Hg10 mi
3:00 PM84 °FSunny.9 mph58%29.80 "Hg10 mi
2:00 PM84 °FSunny.9 mph58%29.83 "Hg10 mi
1:00 PM82 °FSunny.8 mph58%29.86 "Hg10 mi
12:00 PM81 °FSunny.9 mph62%29.89 "Hg10 mi
11:00 AM77 °FSunny.12 mph65%29.92 "Hg10 mi
10:00 AM75 °FSunny.8 mph69%29.92 "Hg10 mi
9:00 AM70 °FPartly sunny.6 mph83%29.95 "HgN/A
8:00 AM66 °FPartly sunny.8 mph88%29.95 "HgN/A
7:00 AM64 °FBroken clouds.5 mph94%29.95 "HgN/A
6:00 AM63 °FBroken clouds.7 mph94%29.92 "HgN/A
5:00 AM63 °FBroken clouds.7 mph94%29.89 "HgN/A
4:00 AM63 °FPartly cloudy.7 mph100%29.89 "HgN/A
3:00 AM63 °FPartly cloudy.5 mph100%29.89 "HgN/A
2:00 AM63 °FPassing clouds.3 mph100%29.92 "HgN/A
1:00 AMN/AThundershowers.3 mphN/AN/AN/A
12:00 AMN/AThundershowers.3 mphN/AN/AN/A
Weather by CustomWeather, © 2014

See weather overviewHow to use our weather pages